Tracking 20228 objects as of 17-Jan-2020
HD Live streaming from Space Station
objects crossing your sky now

DIAMANT B-P4 R/B

Track DIAMANT B-P4 R/B now!
10-day predictions


NORAD ID: 7647
Int'l Code: 1975-010B
Perigee: 804.2 km
Apogee: 1,125.0 km
Inclination: 49.8 °
Period: 104.2 minutes
Semi major axis: 7335 km
RCS: 0.969 m2 (medium)
Launch date: February 6, 1975
Source: France (FR)
Launch site: FRENCH GUIANA (FRGUI)

Note: This is a ROCKET BODY
aabbcc
Your satellite tracking list
Your tracking list is empty




NASA's NSSDC Master Catalog

Two Line Element Set (TLE):
1  7647U 75010B   20016.20124344 -.00000134 +00000-0 +88404-5 0  9994
2  7647 049.8223 195.4368 0218700 067.8034 294.5905 13.81818160266887
Source of the keplerian elements: AFSPC